{"data":{"norad_id":68869,"intl_designator":"2026-095F","name":"KUIPER-00433","alt_names":[],"object_type":"PAYLOAD","status":"ACTIVE","operator":null,"country":"US","launch_date":"2026-04-28","launch_site_code":"AFETR","launch_vehicle":null,"mission":null,"orbit_class":"UNKNOWN","rcs_meters":null,"size_class":null,"mass_kg":null,"dimensions":null,"purposes":[],"wikipedia_slug":null,"has_3d_model":false,"image_url":null,"decayed_at":null,"tle_current":{"epoch":"2026-05-25T00:00:02.000160Z","epoch_age_seconds":65236,"freshness":"FRESH","line1":"1 68869U 26095F   26145.00002315  .00039872  00000+0  26489-2 0  9997","line2":"2 68869  51.8845 356.5865 0006579 225.4327 170.8528 15.06802562  4134","mean_motion":15.06802562,"eccentricity":0.0006579,"inclination_deg":51.8845,"raan_deg":356.5865,"arg_perigee_deg":225.4327,"mean_anomaly_deg":170.8528,"bstar":0.0026489,"rev_number":413,"period_min":95.566601512057,"perigee_km":541.42266279939,"apogee_km":550.5334133665,"semimajor_km":6924.1150380829,"source":"CELESTRAK","updated_at":"2026-05-25T13:38:08.646343Z"}}}